Le nostre stazioni meteo in Italia

Pubblicità
Il mio iltempo24.it
Concordia Sagittaria, Italia (16107): Temperatura & dewpoint: 10.02.2019 07:00:00 - 16.02.2019 07:00:00 (CET)Concordia Sagittaria, Italia (16107): velocità del vento: 10.02.2019 07:00:00 - 16.02.2019 07:00:00 (CET)Concordia Sagittaria, Italia (16107): direzione del vento: 10.02.2019 07:00:00 - 16.02.2019 07:00:00 (CET)Concordia Sagittaria, Italia (16107): reduced air pressure: 10.02.2019 07:00:00 - 16.02.2019 07:00:00 (CET)Concordia Sagittaria, Italia (16107): precipitazioni: 10.02.2019 07:00:00 - 16.02.2019 07:00:00 (CET)
Data & Tempo tt [°C] td [°C] ff [km/h] ff [kn] dd ppp [hPa] rr [mm]
16.02.2019 07:00:00 - - - - - - -
16.02.2019 06:00:00 1,6 0,1 4 2 N 1036,8 -
16.02.2019 05:00:00 - - - - - - -
16.02.2019 04:00:00 - - - - - - -
16.02.2019 03:00:00 1,8 0,3 5 3 O 1037,8 -
16.02.2019 02:00:00 - - - - - - -
16.02.2019 01:00:00 - - - - - - -
16.02.2019 00:00:00 3,1 1,6 2 1 NE 1037,3 -
15.02.2019 23:00:00 - - - - - - -
15.02.2019 22:00:00 - - - - - - -
15.02.2019 21:00:00 8,6 3,6 9 5 S 1037,5 -
15.02.2019 20:00:00 - - - - - - -
15.02.2019 19:00:00 - - - - - - -
15.02.2019 18:00:00 15,9 4,2 5 3 E 1035,5 -
15.02.2019 17:00:00 - - - - - - -
15.02.2019 16:00:00 - - - - - - -
15.02.2019 15:00:00 13,9 3,8 5 3 ONO 1035,9 -
15.02.2019 14:00:00 - - - - - - -
15.02.2019 13:00:00 - - - - - - -
15.02.2019 12:00:00 6,9 4,2 4 2 NO 1037,3 -
15.02.2019 11:00:00 - - - - - - -
15.02.2019 10:00:00 - - - - - - -
15.02.2019 09:00:00 0,8 -0,7 0 0 N 1036,8 -
15.02.2019 08:00:00 - - - - - - -
15.02.2019 07:00:00 - - - - - - -
15.02.2019 06:00:00 2,6 1,1 5 3 NO 1037,0 -
15.02.2019 05:00:00 - - - - - - -
15.02.2019 04:00:00 - - - - - - -
15.02.2019 03:00:00 1,4 -0,1 0 0 N 1038,0 -
15.02.2019 02:00:00 - - - - - - -
15.02.2019 01:00:00 - - - - - - -
15.02.2019 00:00:00 2,0 0,5 4 2 O 1037,9 -
14.02.2019 23:00:00 - - - - - - -
14.02.2019 22:00:00 - - - - - - -
14.02.2019 21:00:00 5,3 1,5 0 0 N 1038,3 -
14.02.2019 20:00:00 - - - - - - -
14.02.2019 19:00:00 - - - - - - -
14.02.2019 18:00:00 12,0 3,1 2 1 NNE 1037,6 -
14.02.2019 17:00:00 - - - - - - -
14.02.2019 16:00:00 - - - - - - -
14.02.2019 15:00:00 10,1 4,0 0 0 N 1039,4 -
14.02.2019 14:00:00 - - - - - - -
14.02.2019 13:00:00 5,9 4,4 5 3 N 1040,4 0,0
14.02.2019 12:00:00 4,6 3,1 2 1 NO 1040,5 -
14.02.2019 11:00:00 1,8 0,3 5 3 N 1041,4 -
14.02.2019 10:00:00 0,7 -0,8 5 3 NNO 1041,2 -
14.02.2019 09:00:00 0,4 -1,1 4 2 N 1041,2 -
14.02.2019 08:00:00 0,1 -1,4 8 4 N 1041,4 -
14.02.2019 07:00:00 0,1 -1,4 0 0 N 1041,4 0,0
14.02.2019 06:00:00 0,6 -0,9 4 2 N 1041,6 -
14.02.2019 05:00:00 0,9 -0,6 4 2 N 1042,0 -
14.02.2019 04:00:00 0,1 -1,4 5 3 NNO 1042,3 -
14.02.2019 03:00:00 0,6 -0,9 0 0 N 1042,5 -
14.02.2019 02:00:00 1,5 0,0 2 1 ENE 1042,6 -
14.02.2019 01:00:00 2,5 1,0 5 3 N 1042,6 0,0
14.02.2019 00:00:00 2,1 0,6 4 2 NO 1042,4 -
13.02.2019 23:00:00 2,2 0,7 0 0 N 1042,1 -
13.02.2019 22:00:00 3,3 1,8 2 1 SE 1041,9 -
13.02.2019 21:00:00 4,3 1,6 2 1 S 1041,6 -
13.02.2019 20:00:00 7,1 3,1 5 3 SE 1040,8 -
13.02.2019 19:00:00 9,4 3,7 9 5 SSE 1040,1 0,0
13.02.2019 18:00:00 11,7 3,6 9 5 SSE 1039,9 -
13.02.2019 17:00:00 11,9 3,6 4 2 SE 1039,8 -
13.02.2019 16:00:00 12,3 2,6 11 6 SO 1040,1 -
13.02.2019 15:00:00 11,4 3,1 15 8 OSO 1040,5 -
13.02.2019 14:00:00 10,9 4,1 5 3 S 1041,1 -
13.02.2019 13:00:00 8,6 3,8 4 2 NE 1041,3 0,0
13.02.2019 12:00:00 5,4 2,5 4 2 N 1041,4 -
13.02.2019 11:00:00 1,9 0,4 4 2 NNO 1041,4 -
13.02.2019 10:00:00 -0,4 -1,9 2 1 NNE 1041,0 -
13.02.2019 09:00:00 -0,1 -1,6 2 1 NNE 1039,7 -
13.02.2019 08:00:00 0,0 -1,5 4 2 NNE 1039,5 -
13.02.2019 07:00:00 0,9 -0,6 4 2 N 1039,0 0,0
13.02.2019 06:00:00 1,1 -0,4 4 2 NNE 1038,4 -
13.02.2019 05:00:00 1,3 -0,2 4 2 NNO 1038,2 -
13.02.2019 04:00:00 1,4 -0,1 5 3 NNO 1038,3 -
13.02.2019 03:00:00 1,9 0,4 4 2 NNO 1038,0 -
13.02.2019 02:00:00 2,2 0,7 5 3 ONO 1037,0 -
13.02.2019 01:00:00 2,8 1,3 4 2 E 1035,8 0,0
13.02.2019 00:00:00 2,5 1,0 4 2 NE 1035,1 -
12.02.2019 23:00:00 3,6 2,1 0 0 N 1034,1 -
12.02.2019 22:00:00 3,2 1,4 5 3 ENE 1033,1 -
12.02.2019 21:00:00 5,4 2,7 0 0 N 1032,0 -
12.02.2019 20:00:00 7,0 1,6 0 0 N 1030,7 -
12.02.2019 19:00:00 11,2 3,9 4 2 ENE 1030,1 0,0
12.02.2019 18:00:00 11,5 5,1 9 5 E 1029,7 -
12.02.2019 17:00:00 11,2 6,7 4 2 E 1029,0 -
12.02.2019 16:00:00 10,4 8,8 9 5 ESE 1028,5 -
12.02.2019 15:00:00 7,5 6,1 8 4 S 1028,4 -
12.02.2019 14:00:00 5,8 4,4 5 3 E 1028,4 -
12.02.2019 13:00:00 5,4 4,0 5 3 SSE 1028,3 0,0
12.02.2019 12:00:00 4,0 2,6 0 0 N 1028,9 -
12.02.2019 11:00:00 2,0 0,7 8 4 N 1028,5 -
12.02.2019 10:00:00 1,5 0,2 5 3 O 1027,8 -
12.02.2019 09:00:00 1,7 0,4 5 3 NNE 1027,1 -
12.02.2019 08:00:00 2,1 0,8 8 4 N 1026,8 -
12.02.2019 07:00:00 1,1 -0,2 5 3 NNE 1026,0 0,0
12.02.2019 06:00:00 0,4 -0,9 2 1 N 1025,5 -
12.02.2019 05:00:00 0,3 -1,0 2 1 SO 1025,3 -
12.02.2019 04:00:00 0,0 -1,5 0 0 N 1024,8 -
12.02.2019 03:00:00 1,2 -0,3 2 1 NO 1024,3 -
12.02.2019 02:00:00 3,1 1,8 4 2 SSO 1023,2 -
12.02.2019 01:00:00 3,6 2,1 8 4 SSO 1022,8 0,0
12.02.2019 00:00:00 3,2 1,7 4 2 NNO 1022,4 -
11.02.2019 23:00:00 4,7 3,2 2 1 N 1021,1 -
11.02.2019 22:00:00 5,8 4,3 2 1 O 1020,0 -
11.02.2019 21:00:00 7,1 5,5 4 2 OSO 1019,1 -
11.02.2019 20:00:00 7,4 5,8 4 2 SSO 1017,9 -
11.02.2019 19:00:00 9,3 7,0 4 2 OSO 1016,8 0,0
11.02.2019 18:00:00 10,4 7,1 4 2 SSO 1016,0 -
11.02.2019 17:00:00 10,7 6,6 5 3 O 1015,3 -
11.02.2019 16:00:00 10,4 7,1 4 2 SO 1014,9 -
11.02.2019 15:00:00 10,0 7,6 11 6 O 1014,6 -
11.02.2019 14:00:00 9,5 7,9 8 4 O 1014,1 -
11.02.2019 13:00:00 6,6 5,2 9 5 O 1013,4 0,0
11.02.2019 12:00:00 6,2 4,8 4 2 OSO 1013,2 -
11.02.2019 11:00:00 5,2 3,8 0 0 N 1012,2 -
11.02.2019 10:00:00 2,6 1,1 4 2 E 1011,0 -
11.02.2019 09:00:00 3,7 2,2 0 0 N 1009,8 -
11.02.2019 08:00:00 5,7 4,3 4 2 O 1009,3 -
11.02.2019 07:00:00 6,2 4,8 13 7 SO 1008,5 0,0
11.02.2019 06:00:00 6,2 4,8 8 4 SSO 1007,7 -
11.02.2019 05:00:00 6,2 4,8 4 2 SO 1008,2 -
11.02.2019 04:00:00 6,2 4,8 2 1 SSO 1008,4 -
11.02.2019 03:00:00 6,7 5,3 0 0 N 1009,0 -
11.02.2019 02:00:00 6,5 5,0 2 1 NNE 1009,0 -
11.02.2019 01:00:00 6,5 5,0 8 4 N 1010,5 0,0
11.02.2019 00:00:00 6,4 4,9 5 3 N 1012,1 -
10.02.2019 23:00:00 6,5 5,0 4 2 N 1013,2 -
10.02.2019 22:00:00 6,2 4,7 11 6 N 1013,8 -
10.02.2019 21:00:00 6,7 5,2 9 5 N 1014,9 -
10.02.2019 20:00:00 7,1 5,5 8 4 NO 1016,1 -
10.02.2019 19:00:00 7,4 5,8 4 2 NNO 1017,2 0,0
10.02.2019 18:00:00 8,2 6,3 4 2 ONO 1018,6 -
10.02.2019 17:00:00 8,4 6,3 4 2 N 1018,9 -
10.02.2019 16:00:00 8,1 6,4 4 2 NNE 1020,0 -
10.02.2019 15:00:00 7,6 6,0 8 4 N 1021,1 -
10.02.2019 14:00:00 7,5 5,9 4 2 N 1022,3 -
10.02.2019 13:00:00 7,2 5,6 5 3 NNO 1023,1 0,0
10.02.2019 12:00:00 6,4 4,9 5 3 NO 1023,4 -
10.02.2019 11:00:00 5,7 4,2 5 3 NNO 1023,9 -
10.02.2019 10:00:00 5,1 3,6 5 3 NNO 1024,0 -
10.02.2019 09:00:00 5,0 3,5 4 2 NO 1024,2 -
10.02.2019 08:00:00 5,0 3,5 8 4 NNO 1024,7 -
10.02.2019 07:00:00 4,6 3,1 5 3 N 1024,9 0,0

tt = Temperatura
td = dewpoint
ff = velocità del vento
dd = direzione del vento
ppp = reduced air pressure
rr = precipitazioni

Stazioni seguenti

WeatherPro
AMSI
MeteoEarth